| time (UTC) | temp F | wind direction | speed MPH | gust MPH | rain 1hr in | rain 24hr in | rain mn in | humidity % | barometer mb |
| 20260509143513 | 76 | 190 | 0.0 | 2.0 | 0.00 | 0.01 | 0.00 | 95 | 1009.9 |
| 20260509143028 | 76 | 325 | 0.0 | 2.0 | 0.00 | 0.01 | 0.00 | 95 | 1010.0 |
| 20260509142511 | 76 | 93 | 1.0 | 2.0 | 0.00 | 0.01 | 0.00 | 95 | 1009.9 |
| 20260509142010 | 76 | 51 | 0.0 | 2.0 | 0.00 | 0.01 | 0.00 | 95 | 1009.7 |
| 20260509141526 | 76 | 41 | 0.0 | 2.0 | 0.00 | 0.01 | 0.00 | 95 | 1009.8 |
| 20260509141012 | 76 | 205 | 1.0 | 2.0 | 0.00 | 0.01 | 0.00 | 95 | 1009.8 |
| 20260509140511 | 76 | 67 | 0.0 | 2.0 | 0.00 | 0.01 | 0.00 | 95 | 1009.6 |
| 20260509140026 | 76 | 93 | 0.0 | 5.0 | 0.00 | 0.01 | 0.00 | 95 | 1009.5 |
| 20260509135514 | 75 | 205 | 1.0 | 5.0 | 0.00 | 0.01 | 0.00 | 95 | 1009.5 |
| 20260509135012 | 75 | 143 | 1.0 | 4.0 | 0.00 | 0.01 | 0.00 | 95 | 1009.8 |
| 20260509134530 | 75 | 137 | 1.0 | 4.0 | 0.00 | 0.01 | 0.00 | 95 | 1009.8 |
| 20260509134013 | 75 | 178 | 1.0 | 4.0 | 0.00 | 0.01 | 0.00 | 95 | 1010.1 |
| 20260509133516 | 75 | 153 | 1.0 | 4.0 | 0.00 | 0.01 | 0.00 | 95 | 1010.5 |
| 20260509133029 | 75 | 221 | 1.0 | 4.0 | 0.00 | 0.01 | 0.00 | 95 | 1010.6 |
| 20260509132510 | 75 | 129 | 1.0 | 2.0 | 0.00 | 0.01 | 0.00 | 96 | 1010.2 |
| 20260509132011 | 75 | 67 | 0.0 | 4.0 | 0.00 | 0.01 | 0.00 | 96 | 1010.6 |
| 20260509131528 | 75 | 51 | 0.0 | 5.0 | 0.00 | 0.01 | 0.00 | 96 | 1010.6 |
| 20260509131015 | 75 | 142 | 2.0 | 5.0 | 0.00 | 0.01 | 0.00 | 96 | 1010.6 |
| 20260509130511 | 75 | 170 | 0.0 | 2.0 | 0.00 | 0.01 | 0.00 | 95 | 1010.7 |
| 20260509130030 | 75 | 165 | 0.0 | 2.0 | 0.00 | 0.01 | 0.00 | 95 | 1010.8 |
| 20260509125505 | 75 | 205 | 0.0 | 2.0 | 0.00 | 0.01 | 0.00 | 95 | 1011.0 |
| 20260509125009 | 75 | 265 | 0.0 | 2.0 | 0.00 | 0.01 | 0.00 | 95 | 1010.8 |
| 20260509124524 | 75 | 265 | 0.0 | 3.0 | 0.00 | 0.01 | 0.00 | 96 | 1010.4 |
| 20260509124009 | 75 | 161 | 1.0 | 3.0 | 0.00 | 0.01 | 0.00 | 96 | 1010.0 |
| 20260509123508 | 74 | 265 | 0.0 | 3.0 | 0.00 | 0.01 | 0.00 | 95 | 1010.2 |
| 20260509123026 | 74 | 137 | 0.0 | 3.0 | 0.00 | 0.01 | 0.00 | 95 | 1010.5 |
| 20260509122510 | 74 | 165 | 0.0 | 3.0 | 0.00 | 0.01 | 0.00 | 95 | 1010.4 |
| 20260509122008 | 74 | 265 | 1.0 | 2.0 | 0.00 | 0.01 | 0.00 | 95 | 1010.5 |
| 20260509121520 | 74 | 146 | 0.0 | 2.0 | 0.00 | 0.01 | 0.00 | 95 | 1010.5 |
| 20260509121007 | 74 | 161 | 0.0 | 2.0 | 0.00 | 0.01 | 0.00 | 95 | 1010.6 |
| 20260509120510 | 74 | 178 | 0.0 | 2.0 | 0.00 | 0.01 | 0.00 | 95 | 1010.6 |
| 20260509120032 | 74 | 153 | 0.0 | 2.0 | 0.00 | 0.01 | 0.00 | 95 | 1010.5 |
| 20260509115513 | 74 | 93 | 0.0 | 2.0 | 0.00 | 0.01 | 0.00 | 95 | 1010.3 |
| 20260509115010 | 74 | 265 | 0.0 | 1.0 | 0.00 | 0.01 | 0.00 | 95 | 1010.3 |
| 20260509114526 | 74 | 178 | 0.0 | 1.0 | 0.00 | 0.01 | 0.00 | 95 | 1010.2 |
| 20260509114008 | 74 | 119 | 0.0 | 2.0 | 0.00 | 0.01 | 0.00 | 95 | 1010.3 |
| 20260509113508 | 74 | 93 | 0.0 | 2.0 | 0.00 | 0.01 | 0.00 | 95 | 1010.3 |
| 20260509113022 | 74 | 26 | 0.0 | 2.0 | 0.00 | 0.01 | 0.00 | 95 | 1010.2 |
| 20260509112508 | 74 | 34 | 0.0 | 2.0 | 0.00 | 0.01 | 0.00 | 95 | 1010.2 |
| 20260509112007 | 74 | 51 | 1.0 | 2.0 | 0.00 | 0.01 | 0.00 | 95 | 1010.2 |
| 20260509111525 | 74 | 9 | 1.0 | 2.0 | 0.00 | 0.01 | 0.00 | 95 | 1010.1 |
| 20260509111009 | 74 | 34 | 0.0 | 2.0 | 0.00 | 0.01 | 0.00 | 95 | 1010.1 |
| 20260509110514 | 74 | 41 | 0.0 | 2.0 | 0.00 | 0.01 | 0.00 | 95 | 1009.9 |
| 20260509110021 | 74 | 137 | 0.0 | 2.0 | 0.00 | 0.01 | 0.00 | 95 | 1009.8 |
| 20260509105508 | 74 | 205 | 0.0 | 2.0 | 0.00 | 0.01 | 0.00 | 95 | 1009.8 |
| 20260509105008 | 74 | 51 | 0.0 | 2.0 | 0.00 | 0.01 | 0.00 | 95 | 1009.8 |
| 20260509104527 | 74 | 51 | 0.0 | 2.0 | 0.00 | 0.01 | 0.00 | 95 | 1009.7 |
| 20260509104009 | 74 | 34 | 0.0 | 2.0 | 0.00 | 0.01 | 0.00 | 95 | 1009.6 |
| 20260509103514 | 74 | 163 | 1.0 | 3.0 | 0.00 | 0.01 | 0.00 | 95 | 1009.6 |
| 20260509103029 | 74 | 309 | 1.0 | 3.0 | 0.00 | 0.01 | 0.00 | 95 | 1009.5 |
| 20260509102508 | 74 | 211 | 1.0 | 3.0 | 0.00 | 0.01 | 0.00 | 95 | 1009.5 |
| 20260509102008 | 74 | 165 | 1.0 | 2.0 | 0.00 | 0.01 | 0.00 | 95 | 1009.7 |
| 20260509101525 | 74 | 137 | 0.0 | 2.0 | 0.00 | 0.01 | 0.00 | 95 | 1009.8 |
| 20260509101010 | 74 | 211 | 0.0 | 2.0 | 0.00 | 0.01 | 0.00 | 95 | 1009.7 |
| 20260509100511 | 74 | 178 | 0.0 | 2.0 | 0.00 | 0.01 | 0.00 | 95 | 1009.7 |
| 20260509100026 | 74 | 211 | 0.0 | 2.0 | 0.00 | 0.01 | 0.00 | 95 | 1009.6 |
| 20260509095508 | 74 | 51 | 0.0 | 2.0 | 0.00 | 0.01 | 0.00 | 95 | 1009.5 |
| 20260509095010 | 74 | 51 | 0.0 | 2.0 | 0.00 | 0.01 | 0.00 | 95 | 1009.4 |
| 20260509094526 | 74 | 67 | 0.0 | 2.0 | 0.00 | 0.01 | 0.00 | 95 | 1009.4 |
| 20260509094007 | 74 | 34 | 0.0 | 2.0 | 0.00 | 0.01 | 0.00 | 95 | 1009.3 |
| 20260509093508 | 74 | 51 | 0.0 | 2.0 | 0.00 | 0.01 | 0.00 | 95 | 1009.3 |
| 20260509093024 | 74 | 51 | 1.0 | 2.0 | 0.00 | 0.01 | 0.00 | 95 | 1009.2 |
| 20260509092516 | 74 | 9 | 0.0 | 2.0 | 0.00 | 0.01 | 0.00 | 95 | 1009.3 |
| 20260509092011 | 74 | 61 | 1.0 | 2.0 | 0.00 | 0.01 | 0.00 | 95 | 1009.2 |
| 20260509091526 | 74 | 67 | 0.0 | 2.0 | 0.00 | 0.01 | 0.00 | 95 | 1009.5 |
| 20260509091014 | 74 | 51 | 0.0 | 2.0 | 0.00 | 0.01 | 0.00 | 95 | 1009.7 |
| 20260509090511 | 74 | 93 | 0.0 | 2.0 | 0.00 | 0.01 | 0.00 | 95 | 1009.8 |
| 20260509090018 | 74 | 61 | 1.0 | 2.0 | 0.00 | 0.01 | 0.00 | 95 | 1009.8 |
| 20260509085509 | 74 | 9 | 0.0 | 2.0 | 0.00 | 0.01 | 0.00 | 95 | 1009.7 |
| 20260509085010 | 74 | 26 | 0.0 | 1.0 | 0.00 | 0.01 | 0.00 | 95 | 1009.8 |
| 20260509084534 | 74 | 67 | 0.0 | 2.0 | 0.00 | 0.01 | 0.00 | 95 | 1009.8 |
| 20260509084013 | 74 | 51 | 0.0 | 2.0 | 0.00 | 0.01 | 0.00 | 95 | 1009.8 |
| 20260509083510 | 74 | 41 | 1.0 | 2.0 | 0.00 | 0.01 | 0.00 | 94 | 1009.7 |
| 20260509083037 | 74 | 9 | 0.0 | 2.0 | 0.00 | 0.01 | 0.00 | 95 | 1009.6 |
| 20260509082511 | 74 | 34 | 0.0 | 2.0 | 0.00 | 0.01 | 0.00 | 95 | 1009.6 |
| 20260509082010 | 75 | 76 | 0.0 | 2.0 | 0.00 | 0.01 | 0.00 | 95 | 1009.6 |
| 20260509081527 | 75 | 309 | 0.0 | 2.0 | 0.00 | 0.01 | 0.00 | 95 | 1009.6 |
| 20260509081008 | 75 | 119 | 0.0 | 2.0 | 0.00 | 0.01 | 0.00 | 95 | 1009.6 |
| 20260509080507 | 75 | 137 | 0.0 | 2.0 | 0.00 | 0.01 | 0.00 | 95 | 1009.6 |
| 20260509080035 | 75 | 93 | 0.0 | 4.0 | 0.00 | 0.01 | 0.00 | 95 | 1009.5 |
| 20260509075509 | 75 | 178 | 0.0 | 5.0 | 0.00 | 0.01 | 0.00 | 95 | 1009.6 |
| 20260509075010 | 75 | 165 | 1.0 | 5.0 | 0.00 | 0.01 | 0.00 | 95 | 1009.5 |
| 20260509074530 | 75 | 178 | 1.0 | 4.0 | 0.00 | 0.01 | 0.00 | 95 | 1009.6 |
| 20260509074010 | 75 | 67 | 0.0 | 5.0 | 0.00 | 0.01 | 0.00 | 95 | 1009.5 |
| 20260509073508 | 74 | 178 | 2.0 | 5.0 | 0.00 | 0.01 | 0.00 | 95 | 1009.3 |
| 20260509073026 | 74 | 211 | 2.0 | 5.0 | 0.00 | 0.01 | 0.00 | 94 | 1009.2 |
| 20260509072508 | 74 | 200 | 2.0 | 5.0 | 0.00 | 0.01 | 0.00 | 94 | 1009.2 |
| 20260509072010 | 74 | 178 | 2.0 | 7.0 | 0.00 | 0.01 | 0.00 | 94 | 1009.4 |
| 20260509071528 | 74 | 178 | 1.0 | 7.0 | 0.00 | 0.01 | 0.00 | 94 | 1009.6 |
| 20260509071010 | 74 | 171 | 2.0 | 6.0 | 0.00 | 0.01 | 0.00 | 94 | 1009.6 |
| 20260509070510 | 74 | 196 | 2.0 | 5.0 | 0.00 | 0.01 | 0.00 | 94 | 1009.8 |
| 20260509070028 | 74 | 178 | 2.0 | 5.0 | 0.00 | 0.01 | 0.00 | 94 | 1009.8 |
| 20260509065507 | 74 | 196 | 1.0 | 5.0 | 0.00 | 0.01 | 0.00 | 94 | 1009.8 |
| 20260509065008 | 74 | 178 | 1.0 | 4.0 | 0.00 | 0.01 | 0.00 | 94 | 1009.9 |
| 20260509064528 | 74 | 137 | 0.0 | 2.0 | 0.00 | 0.01 | 0.00 | 94 | 1010.1 |
| 20260509064011 | 74 | 93 | 0.0 | 1.0 | 0.00 | 0.01 | 0.00 | 94 | 1010.0 |
| 20260509063508 | 74 | 9 | 0.0 | 1.0 | 0.00 | 0.01 | 0.00 | 94 | 1010.0 |
| 20260509063026 | 74 | 9 | 0.0 | 2.0 | 0.00 | 0.01 | 0.00 | 94 | 1010.0 |
| 20260509062511 | 74 | 93 | 0.0 | 2.0 | 0.00 | 0.01 | 0.00 | 94 | 1010.0 |
| 20260509062012 | 74 | 93 | 0.0 | 2.0 | 0.00 | 0.01 | 0.00 | 94 | 1010.2 |
| 20260509061526 | 74 | 93 | 0.0 | 4.0 | 0.00 | 0.01 | 0.00 | 94 | 1010.3 |
| 20260509061010 | 74 | 93 | 0.0 | 4.0 | 0.00 | 0.01 | 0.00 | 94 | 1010.3 |
| 20260509060508 | 74 | 265 | 1.0 | 3.0 | 0.00 | 0.01 | 0.00 | 94 | 1010.2 |
| 20260509060028 | 74 | 200 | 1.0 | 3.0 | 0.00 | 0.01 | 0.00 | 94 | 1010.2 |
| 20260509055510 | 74 | 137 | 0.0 | 4.0 | 0.00 | 0.01 | 0.00 | 94 | 1010.3 |
| 20260509055008 | 74 | 93 | 0.0 | 4.0 | 0.00 | 0.01 | 0.00 | 94 | 1010.3 |
| 20260509054528 | 74 | 153 | 1.0 | 3.0 | 0.00 | 0.01 | 0.00 | 94 | 1010.3 |
| 20260509054010 | 74 | 178 | 1.0 | 3.0 | 0.00 | 0.01 | 0.00 | 94 | 1010.3 |
| 20260509053508 | 74 | 205 | 1.0 | 3.0 | 0.00 | 0.01 | 0.00 | 94 | 1010.3 |
| 20260509053030 | 74 | 34 | 0.0 | 2.0 | 0.00 | 0.01 | 0.00 | 94 | 1010.3 |
| 20260509052509 | 74 | 153 | 0.0 | 3.0 | 0.00 | 0.01 | 0.00 | 94 | 1010.3 |
| 20260509052013 | 74 | 178 | 1.0 | 4.0 | 0.00 | 0.01 | 0.00 | 94 | 1010.3 |
| 20260509051527 | 74 | 170 | 1.0 | 4.0 | 0.00 | 0.01 | 0.00 | 94 | 1010.2 |
| 20260509051010 | 74 | 150 | 1.0 | 5.0 | 0.00 | 0.01 | 0.00 | 94 | 1010.2 |
| 20260509050511 | 74 | 67 | 1.0 | 5.0 | 0.00 | 0.01 | 0.00 | 94 | 1010.2 |
| 20260509050051 | 74 | 178 | 1.0 | 4.0 | 0.00 | 0.01 | 0.00 | 94 | 1010.2 |
| 20260509045508 | 74 | 159 | 2.0 | 4.0 | 0.00 | 0.01 | 0.01 | 93 | 1010.1 |
| 20260509045010 | 74 | 200 | 1.0 | 3.0 | 0.00 | 0.01 | 0.01 | 93 | 1010.1 |
| 20260509044527 | 74 | 93 | 1.0 | 3.0 | 0.00 | 0.01 | 0.01 | 93 | 1010.2 |
| 20260509044015 | 74 | 178 | 1.0 | 3.0 | 0.00 | 0.01 | 0.01 | 93 | 1010.3 |
| 20260509043511 | 74 | 178 | 1.0 | 6.0 | 0.00 | 0.01 | 0.01 | 93 | 1010.2 |
| 20260509043031 | 74 | 188 | 1.0 | 6.0 | 0.00 | 0.01 | 0.01 | 93 | 1010.2 |
| 20260509042508 | 74 | 93 | 1.0 | 5.0 | 0.00 | 0.01 | 0.01 | 93 | 1010.2 |
| 20260509042015 | 74 | 198 | 2.0 | 5.0 | 0.00 | 0.01 | 0.01 | 93 | 1010.2 |
| 20260509041526 | 74 | 221 | 1.0 | 5.0 | 0.00 | 0.01 | 0.01 | 93 | 1010.2 |
| 20260509041012 | 74 | 325 | 1.0 | 5.0 | 0.00 | 0.01 | 0.01 | 93 | 1010.2 |
| 20260509040515 | 74 | 124 | 1.0 | 5.0 | 0.00 | 0.01 | 0.01 | 93 | 1010.2 |
| 20260509040008 | 74 | 157 | 1.0 | 5.0 | 0.00 | 0.01 | 0.01 | 93 | 1010.2 |
| 20260509035510 | 74 | 188 | 1.0 | 5.0 | 0.00 | 0.01 | 0.01 | 93 | 1010.1 |
| 20260509035009 | 74 | 165 | 1.0 | 5.0 | 0.00 | 0.01 | 0.01 | 93 | 1010.1 |
| 20260509034515 | 74 | 137 | 1.0 | 4.0 | 0.00 | 0.01 | 0.01 | 93 | 1010.0 |
| 20260509034007 | 74 | 86 | 1.0 | 7.0 | 0.00 | 0.01 | 0.01 | 93 | 1010.0 |
| 20260509033507 | 74 | 76 | 0.0 | 7.0 | 0.00 | 0.01 | 0.01 | 93 | 1009.9 |
| 20260509033027 | 74 | 103 | 0.0 | 4.0 | 0.00 | 0.01 | 0.01 | 93 | 1009.8 |
| 20260509032513 | 74 | 137 | 0.0 | 4.0 | 0.00 | 0.01 | 0.01 | 93 | 1009.8 |
| 20260509032013 | 74 | 126 | 1.0 | 4.0 | 0.00 | 0.01 | 0.01 | 92 | 1009.7 |
| 20260509031531 | 74 | 93 | 1.0 | 5.0 | 0.00 | 0.01 | 0.01 | 92 | 1009.6 |
| 20260509031007 | 74 | 72 | 1.0 | 5.0 | 0.00 | 0.01 | 0.01 | 92 | 1009.8 |
| 20260509030511 | 74 | 178 | 1.0 | 5.0 | 0.00 | 0.01 | 0.01 | 92 | 1009.9 |
| 20260509030035 | 74 | 178 | 1.0 | 4.0 | 0.00 | 0.01 | 0.01 | 92 | 1009.8 |
| 20260509025507 | 74 | 131 | 1.0 | 4.0 | 0.00 | 0.01 | 0.01 | 92 | 1009.8 |
| 20260509025011 | 74 | 221 | 1.0 | 3.0 | 0.00 | 0.01 | 0.01 | 92 | 1009.8 |
| 20260509024529 | 74 | 221 | 0.0 | 3.0 | 0.00 | 0.01 | 0.01 | 92 | 1009.8 |
| 20260509024007 | 74 | 119 | 1.0 | 2.0 | 0.00 | 0.01 | 0.01 | 92 | 1009.6 |
| 20260509023506 | 74 | 137 | 1.0 | 2.0 | 0.00 | 0.01 | 0.01 | 92 | 1009.6 |
| 20260509023024 | 74 | 93 | 0.0 | 2.0 | 0.00 | 0.01 | 0.01 | 92 | 1009.5 |
| 20260509022510 | 74 | 41 | 0.0 | 2.0 | 0.00 | 0.01 | 0.01 | 92 | 1009.5 |
| 20260509022012 | 74 | 51 | 0.0 | 3.0 | 0.00 | 0.01 | 0.01 | 92 | 1009.5 |
| 20260509021522 | 74 | 153 | 0.0 | 3.0 | 0.00 | 0.01 | 0.01 | 91 | 1009.4 |
| 20260509021008 | 74 | 80 | 1.0 | 3.0 | 0.00 | 0.01 | 0.01 | 92 | 1009.2 |
| 20260509020512 | 74 | 51 | 0.0 | 3.0 | 0.00 | 0.01 | 0.01 | 92 | 1008.9 |
| 20260509020011 | 74 | 103 | 0.0 | 3.0 | 0.00 | 0.01 | 0.01 | 91 | 1009.0 |
| 20260509015507 | 74 | 178 | 0.0 | 2.0 | 0.00 | 0.01 | 0.01 | 91 | 1009.0 |
| 20260509015007 | 74 | 63 | 0.0 | 2.0 | 0.00 | 0.01 | 0.01 | 91 | 1009.1 |
| 20260509014518 | 74 | 51 | 0.0 | 2.0 | 0.00 | 0.01 | 0.01 | 91 | 1009.2 |
| 20260509014009 | 74 | 51 | 0.0 | 2.0 | 0.00 | 0.01 | 0.01 | 91 | 1009.2 |
| 20260509013511 | 74 | 9 | 0.0 | 3.0 | 0.00 | 0.01 | 0.01 | 91 | 1009.2 |
| 20260509013026 | 74 | 51 | 0.0 | 3.0 | 0.00 | 0.01 | 0.01 | 91 | 1009.1 |
| 20260509012508 | 74 | 76 | 0.0 | 4.0 | 0.00 | 0.01 | 0.01 | 91 | 1009.0 |
| 20260509012007 | 74 | 58 | 1.0 | 4.0 | 0.00 | 0.01 | 0.01 | 91 | 1009.0 |
| 20260509011512 | 74 | 209 | 1.0 | 5.0 | 0.00 | 0.01 | 0.01 | 91 | 1009.1 |
| 20260509011007 | 74 | 168 | 0.0 | 5.0 | 0.00 | 0.01 | 0.01 | 90 | 1009.1 |
| 20260509010511 | 74 | 93 | 1.0 | 4.0 | 0.00 | 0.01 | 0.01 | 90 | 1009.1 |
| 20260509010022 | 74 | 93 | 1.0 | 4.0 | 0.00 | 0.01 | 0.01 | 90 | 1009.1 |
| 20260509005508 | 74 | 26 | 0.0 | 3.0 | 0.00 | 0.01 | 0.01 | 90 | 1009.0 |
| 20260509005012 | 74 | 93 | 1.0 | 3.0 | 0.00 | 0.01 | 0.01 | 90 | 1008.9 |
| 20260509004535 | 74 | 51 | 1.0 | 5.0 | 0.00 | 0.01 | 0.01 | 90 | 1008.8 |
| 20260509004012 | 74 | 93 | 1.0 | 6.0 | 0.00 | 0.01 | 0.01 | 90 | 1008.8 |
| 20260509003511 | 74 | 80 | 2.0 | 6.0 | 0.00 | 0.01 | 0.01 | 90 | 1008.8 |
| 20260509003031 | 75 | 178 | 1.0 | 6.0 | 0.00 | 0.01 | 0.01 | 90 | 1008.9 |
| 20260509002511 | 75 | 93 | 1.0 | 6.0 | 0.00 | 0.01 | 0.01 | 90 | 1008.9 |
| 20260509002010 | 75 | 184 | 1.0 | 4.0 | 0.00 | 0.01 | 0.01 | 90 | 1008.9 |
| 20260509001531 | 75 | 83 | 1.0 | 4.0 | 0.00 | 0.01 | 0.01 | 90 | 1009.0 |
| 20260509001012 | 75 | 51 | 1.0 | 3.0 | 0.00 | 0.01 | 0.01 | 90 | 1009.0 |
| 20260509000509 | 75 | 93 | 1.0 | 3.0 | 0.00 | 0.01 | 0.01 | 90 | 1009.0 |
| 20260509000035 | 75 | 93 | 2.0 | 3.0 | 0.00 | 0.01 | 0.01 | 90 | 1009.0 |
| 20260508235510 | 75 | 103 | 1.0 | 3.0 | 0.00 | 0.01 | 0.01 | 90 | 1009.2 |
| 20260508235011 | 75 | 51 | 1.0 | 4.0 | 0.00 | 0.01 | 0.01 | 90 | 1009.1 |
| 20260508234524 | 75 | 137 | 1.0 | 4.0 | 0.00 | 0.01 | 0.01 | 90 | 1008.9 |
| 20260508234010 | 75 | 83 | 1.0 | 3.0 | 0.00 | 0.01 | 0.01 | 90 | 1008.9 |
| 20260508233510 | 75 | 76 | 2.0 | 3.0 | 0.00 | 0.01 | 0.01 | 90 | 1008.9 |
| 20260508233028 | 75 | 83 | 1.0 | 3.0 | 0.00 | 0.01 | 0.01 | 90 | 1008.9 |
| 20260508232507 | 75 | 111 | 1.0 | 4.0 | 0.00 | 0.01 | 0.01 | 89 | 1009.0 |
| 20260508232009 | 75 | 93 | 1.0 | 6.0 | 0.00 | 0.01 | 0.01 | 89 | 1009.1 |
| 20260508231530 | 75 | 198 | 2.0 | 6.0 | 0.00 | 0.01 | 0.01 | 89 | 1009.2 |
| 20260508231011 | 75 | 161 | 1.0 | 5.0 | 0.00 | 0.01 | 0.01 | 88 | 1009.2 |
| 20260508230510 | 75 | 101 | 1.0 | 5.0 | 0.00 | 0.01 | 0.01 | 88 | 1009.3 |
| 20260508230022 | 76 | 178 | 1.0 | 6.0 | 0.00 | 0.01 | 0.01 | 88 | 1009.4 |
| 20260508225509 | 76 | 153 | 1.0 | 6.0 | 0.00 | 0.01 | 0.01 | 88 | 1009.2 |
| 20260508225010 | 76 | 132 | 1.0 | 5.0 | 0.00 | 0.01 | 0.01 | 88 | 1009.2 |
| 20260508224531 | 76 | 334 | 1.0 | 5.0 | 0.00 | 0.01 | 0.01 | 88 | 1009.2 |
| 20260508224009 | 76 | 80 | 1.0 | 4.0 | 0.00 | 0.01 | 0.01 | 88 | 1009.2 |
| 20260508223510 | 77 | 101 | 1.0 | 4.0 | 0.00 | 0.01 | 0.01 | 88 | 1009.0 |
| 20260508223034 | 76 | 58 | 1.0 | 8.0 | 0.00 | 0.01 | 0.01 | 88 | 1009.1 |
| 20260508222510 | 76 | 161 | 1.0 | 8.0 | 0.00 | 0.01 | 0.01 | 88 | 1009.1 |
| 20260508222009 | 77 | 171 | 2.0 | 5.0 | 0.00 | 0.01 | 0.01 | 87 | 1009.3 |
| 20260508221526 | 77 | 129 | 1.0 | 5.0 | 0.00 | 0.01 | 0.01 | 87 | 1009.2 |
| 20260508221011 | 77 | 232 | 2.0 | 5.0 | 0.00 | 0.01 | 0.01 | 87 | 1009.1 |
| 20260508220510 | 77 | 115 | 1.0 | 4.0 | 0.00 | 0.01 | 0.01 | 87 | 1009.1 |
| 20260508220014 | 77 | 74 | 1.0 | 4.0 | 0.00 | 0.01 | 0.01 | 87 | 1009.1 |
| 20260508215507 | 77 | 119 | 1.0 | 4.0 | 0.00 | 0.01 | 0.01 | 87 | 1009.3 |
| 20260508215009 | 77 | 205 | 1.0 | 5.0 | 0.00 | 0.01 | 0.01 | 87 | 1009.3 |
| 20260508214523 | 77 | 209 | 2.0 | 5.0 | 0.00 | 0.01 | 0.01 | 87 | 1009.3 |
| 20260508214010 | 77 | 51 | 1.0 | 4.0 | 0.00 | 0.01 | 0.01 | 87 | 1009.4 |
| 20260508213507 | 77 | 93 | 1.0 | 4.0 | 0.00 | 0.01 | 0.01 | 88 | 1009.3 |
| 20260508213018 | 78 | 214 | 1.0 | 5.0 | 0.00 | 0.01 | 0.01 | 88 | 1009.4 |
| 20260508212509 | 77 | 41 | 1.0 | 5.0 | 0.00 | 0.01 | 0.01 | 87 | 1009.5 |
| 20260508212007 | 77 | 119 | 1.0 | 3.0 | 0.00 | 0.01 | 0.01 | 87 | 1009.6 |
| 20260508211518 | 77 | 178 | 1.0 | 6.0 | 0.00 | 0.01 | 0.01 | 87 | 1009.7 |
| 20260508211009 | 78 | 137 | 1.0 | 6.0 | 0.00 | 0.01 | 0.01 | 87 | 1009.8 |
| 20260508210510 | 78 | 93 | 1.0 | 6.0 | 0.00 | 0.01 | 0.01 | 87 | 1009.9 |
| 20260508210025 | 78 | 93 | 1.0 | 6.0 | 0.00 | 0.01 | 0.01 | 87 | 1009.8 |
| 20260508205515 | 78 | 178 | 1.0 | 3.0 | 0.00 | 0.01 | 0.01 | 88 | 1009.7 |
| 20260508205003 | 77 | 76 | 2.0 | 3.0 | 0.00 | 0.01 | 0.01 | 87 | 1009.7 |
| 20260508204511 | 78 | 115 | 1.0 | 6.0 | 0.00 | 0.01 | 0.01 | 86 | 1010.0 |
| 20260508204007 | 78 | 93 | 2.0 | 7.0 | 0.00 | 0.01 | 0.01 | 86 | 1009.9 |
| 20260508203507 | 78 | 93 | 3.0 | 8.0 | 0.00 | 0.01 | 0.01 | 86 | 1010.0 |
| 20260508203020 | 79 | 190 | 2.0 | 8.0 | 0.00 | 0.01 | 0.01 | 87 | 1010.0 |
| 20260508202508 | 79 | 175 | 2.0 | 5.0 | 0.00 | 0.01 | 0.01 | 88 | 1010.0 |
| 20260508202007 | 78 | 93 | 1.0 | 7.0 | 0.00 | 0.01 | 0.01 | 88 | 1009.9 |
| 20260508201526 | 78 | 161 | 1.0 | 7.0 | 0.00 | 0.01 | 0.01 | 89 | 1010.0 |
| 20260508201005 | 77 | 178 | 4.0 | 10.0 | 0.00 | 0.01 | 0.01 | 90 | 1010.0 |
| 20260508200506 | 76 | 207 | 3.0 | 10.0 | 0.00 | 0.01 | 0.01 | 91 | 1010.1 |
| 20260508200019 | 75 | 153 | 2.0 | 6.0 | 0.00 | 0.01 | 0.01 | 91 | 1010.2 |
| 20260508195506 | 74 | 93 | 1.0 | 3.0 | 0.00 | 0.01 | 0.01 | 91 | 1010.2 |
| 20260508195007 | 74 | 115 | 0.0 | 6.0 | 0.00 | 0.01 | 0.01 | 92 | 1010.5 |
| 20260508194540 | 74 | 51 | 1.0 | 6.0 | 0.00 | 0.01 | 0.01 | 91 | 1010.6 |
| 20260508194011 | 74 | 178 | 1.0 | 6.0 | 0.00 | 0.01 | 0.01 | 91 | 1010.7 |
| 20260508193508 | 73 | 165 | 2.0 | 6.0 | 0.00 | 0.01 | 0.01 | 92 | 1010.4 |
| 20260508193015 | 73 | 188 | 1.0 | 3.0 | 0.00 | 0.01 | 0.01 | 91 | 1010.8 |
| 20260508192504 | 73 | 161 | 0.0 | 3.0 | 0.00 | 0.01 | 0.01 | 91 | 1011.0 |
| 20260508192009 | 72 | 111 | 1.0 | 2.0 | 0.00 | 0.01 | 0.01 | 91 | 1011.0 |
| 20260508191518 | 72 | 148 | 0.0 | 2.0 | 0.00 | 0.01 | 0.01 | 91 | 1011.2 |
| 20260508191007 | 72 | 76 | 1.0 | 2.0 | 0.00 | 0.01 | 0.01 | 91 | 1011.2 |
| 20260508190508 | 72 | 80 | 1.0 | 2.0 | 0.01 | 0.01 | 0.01 | 91 | 1011.2 |
| 20260508190026 | 72 | 265 | 0.0 | 2.0 | 0.01 | 0.01 | 0.01 | 91 | 1011.3 |
| 20260508185507 | 72 | 51 | 1.0 | 2.0 | 0.01 | 0.01 | 0.01 | 91 | 1011.2 |
| 20260508185004 | 72 | 137 | 0.0 | 2.0 | 0.01 | 0.01 | 0.01 | 90 | 1011.1 |
| 20260508184512 | 72 | 67 | 1.0 | 5.0 | 0.01 | 0.01 | 0.01 | 90 | 1011.0 |
| 20260508184006 | 72 | 51 | 0.0 | 5.0 | 0.01 | 0.01 | 0.01 | 90 | 1011.1 |
| 20260508183508 | 72 | 155 | 1.0 | 5.0 | 0.01 | 0.01 | 0.01 | 90 | 1011.3 |
| 20260508183022 | 72 | 205 | 1.0 | 6.0 | 0.01 | 0.01 | 0.01 | 91 | 1011.1 |
| 20260508182510 | 72 | 157 | 1.0 | 6.0 | 0.01 | 0.01 | 0.01 | 91 | 1011.1 |
| 20260508182007 | 73 | 153 | 2.0 | 6.0 | 0.01 | 0.01 | 0.01 | 91 | 1011.1 |
| 20260508181540 | 72 | 250 | 1.0 | 6.0 | 0.01 | 0.01 | 0.01 | 91 | 1011.1 |
| 20260508181009 | 72 | 171 | 2.0 | 6.0 | 0.01 | 0.01 | 0.01 | 91 | 1011.1 |
| 20260508180509 | 72 | 234 | 1.0 | 5.0 | 0.00 | 0.00 | 0.00 | 91 | 1011.2 |
| 20260508180017 | 72 | 173 | 2.0 | 5.0 | 0.00 | 0.00 | 0.00 | 91 | 1011.4 |
| 20260508175508 | 71 | 148 | 2.0 | 5.0 | 0.00 | 0.00 | 0.00 | 90 | 1011.5 |
| 20260508175006 | 71 | 132 | 1.0 | 4.0 | 0.00 | 0.00 | 0.00 | 90 | 1011.9 |
| 20260508174524 | 71 | 265 | 1.0 | 3.0 | 0.00 | 0.00 | 0.00 | 90 | 1011.9 |
| 20260508174007 | 71 | 153 | 1.0 | 3.0 | 0.00 | 0.00 | 0.00 | 90 | 1012.0 |
| 20260508173513 | 71 | 126 | 1.0 | 4.0 | 0.00 | 0.00 | 0.00 | 89 | 1012.0 |
| 20260508173021 | 71 | 137 | 0.0 | 4.0 | 0.00 | 0.00 | 0.00 | 89 | 1012.0 |
| 20260508172506 | 71 | 137 | 0.0 | 3.0 | 0.00 | 0.00 | 0.00 | 89 | 1012.0 |
| 20260508172010 | 71 | 34 | 0.0 | 5.0 | 0.00 | 0.00 | 0.00 | 88 | 1012.2 |
| 20260508171524 | 72 | 309 | 1.0 | 5.0 | 0.00 | 0.00 | 0.00 | 88 | 1012.1 |
| 20260508171008 | 72 | 178 | 1.0 | 4.0 | 0.00 | 0.00 | 0.00 | 88 | 1012.1 |
| 20260508170507 | 72 | 137 | 0.0 | 3.0 | 0.00 | 0.00 | 0.00 | 88 | 1012.2 |
| 20260508170024 | 72 | 119 | 0.0 | 4.0 | 0.00 | 0.00 | 0.00 | 87 | 1012.2 |
| 20260508165510 | 72 | 107 | 1.0 | 4.0 | 0.00 | 0.00 | 0.00 | 87 | 1012.2 |
| 20260508165004 | 72 | 221 | 1.0 | 4.0 | 0.00 | 0.00 | 0.00 | 87 | 1012.2 |
| 20260508164517 | 72 | 93 | 1.0 | 4.0 | 0.00 | 0.00 | 0.00 | 88 | 1012.3 |
| 20260508164008 | 71 | 146 | 2.0 | 4.0 | 0.00 | 0.00 | 0.00 | 88 | 1012.3 |
| 20260508163508 | 71 | 153 | 1.0 | 4.0 | 0.00 | 0.00 | 0.00 | 87 | 1012.6 |
| 20260508163022 | 71 | 137 | 1.0 | 6.0 | 0.00 | 0.00 | 0.00 | 87 | 1012.5 |
| 20260508162509 | 71 | 9 | 1.0 | 6.0 | 0.00 | 0.00 | 0.00 | 88 | 1012.2 |
| 20260508162012 | 71 | 93 | 2.0 | 9.0 | 0.00 | 0.00 | 0.00 | 88 | 1012.1 |
| 20260508161530 | 71 | 143 | 2.0 | 9.0 | 0.00 | 0.00 | 0.00 | 88 | 1012.2 |
| 20260508161004 | 70 | 161 | 2.0 | 7.0 | 0.00 | 0.00 | 0.00 | 88 | 1012.2 |
| 20260508160508 | 70 | 137 | 2.0 | 6.0 | 0.00 | 0.00 | 0.00 | 88 | 1012.4 |
| 20260508160026 | 70 | 161 | 2.0 | 6.0 | 0.00 | 0.00 | 0.00 | 88 | 1012.5 |
| 20260508155513 | 69 | 119 | 2.0 | 4.0 | 0.00 | 0.00 | 0.00 | 88 | 1012.7 |
| 20260508155010 | 69 | 78 | 1.0 | 4.0 | 0.00 | 0.00 | 0.00 | 88 | 1012.9 |
| 20260508154526 | 69 | 76 | 1.0 | 7.0 | 0.00 | 0.00 | 0.00 | 88 | 1012.9 |
| 20260508154011 | 69 | 36 | 2.0 | 7.0 | 0.00 | 0.00 | 0.00 | 88 | 1013.0 |
| 20260508153507 | 69 | 93 | 1.0 | 6.0 | 0.00 | 0.00 | 0.00 | 88 | 1013.0 |
| 20260508153012 | 69 | 67 | 1.0 | 9.0 | 0.00 | 0.00 | 0.00 | 89 | 1013.0 |
| 20260508152506 | 69 | 67 | 1.0 | 9.0 | 0.00 | 0.00 | 0.00 | 89 | 1012.9 |
| 20260508152006 | 69 | 126 | 2.0 | 6.0 | 0.00 | 0.00 | 0.00 | 89 | 1013.0 |
| 20260508151522 | 69 | 90 | 2.0 | 6.0 | 0.00 | 0.00 | 0.00 | 90 | 1012.9 |
| 20260508151012 | 69 | 334 | 1.0 | 4.0 | 0.00 | 0.00 | 0.00 | 90 | 1012.9 |
| 20260508150510 | 69 | 119 | 1.0 | 3.0 | 0.00 | 0.00 | 0.00 | 90 | 1013.0 |
| 20260508150024 | 69 | 119 | 1.0 | 3.0 | 0.00 | 0.00 | 0.00 | 90 | 1012.9 |
| 20260508145511 | 69 | 78 | 1.0 | 3.0 | 0.00 | 0.00 | 0.00 | 90 | 1013.0 |
| 20260508145007 | 69 | 309 | 1.0 | 4.0 | 0.00 | 0.00 | 0.00 | 90 | 1013.0 |
| 20260508144516 | 69 | 41 | 1.0 | 5.0 | 0.00 | 0.00 | 0.00 | 90 | 1012.9 |
| 20260508144011 | 69 | 59 | 1.0 | 5.0 | 0.00 | 0.00 | 0.00 | 90 | 1013.0 |